Time,TemperatureF,DewpointF,PressureIn,WindDirection,WindDirectionDegrees,WindSpeedMPH,WindSpeedGustMPH,Humidity,HourlyPrecipIn,Conditions,Clouds,dailyrainin,SoftwareType,DateUTC
2016-02-07 00:02:00,53.6,32.8,30.15,East,101,0.0,0.0,45,0.00,,,0.00,Wunderground v.1.13,2016-02-07 08:02:00,
2016-02-07 00:08:00,53.3,33.0,30.15,East,101,0.0,0.0,46,0.00,,,0.00,Wunderground v.1.13,2016-02-07 08:08:00,
2016-02-07 00:13:00,53.2,33.5,30.15,East,101,0.0,0.0,47,0.00,,,0.00,Wunderground v.1.13,2016-02-07 08:13:00,
2016-02-07 00:18:00,53.1,32.8,30.15,East,101,0.0,0.0,46,0.00,,,0.00,Wunderground v.1.13,2016-02-07 08:18:00,
2016-02-07 00:23:00,53.1,32.8,30.15,East,101,0.0,0.0,46,0.00,,,0.00,Wunderground v.1.13,2016-02-07 08:23:00,
2016-02-07 00:28:00,53.1,32.8,30.15,East,101,0.0,0.0,46,0.00,,,0.00,Wunderground v.1.13,2016-02-07 08:28:00,
2016-02-07 00:33:00,53.1,33.4,30.15,East,101,0.0,0.0,47,0.00,,,0.00,Wunderground v.1.13,2016-02-07 08:33:00,
2016-02-07 00:38:00,53.0,33.3,30.15,East,101,0.0,0.0,47,0.00,,,0.00,Wunderground v.1.13,2016-02-07 08:38:00,
2016-02-07 00:43:00,52.9,33.2,30.15,East,101,0.0,0.0,47,0.00,,,0.00,Wunderground v.1.13,2016-02-07 08:43:00,
2016-02-07 00:48:00,52.7,33.5,30.15,East,101,0.0,0.0,48,0.00,,,0.00,Wunderground v.1.13,2016-02-07 08:48:00,
2016-02-07 00:53:00,52.5,33.4,30.15,East,101,0.0,0.0,48,0.00,,,0.00,Wunderground v.1.13,2016-02-07 08:53:00,
2016-02-07 00:58:00,52.3,33.7,30.15,East,101,0.0,0.0,49,0.00,,,0.00,Wunderground v.1.13,2016-02-07 08:58:00,
2016-02-07 01:03:00,52.0,33.9,30.15,East,101,0.0,0.0,50,0.00,,,0.00,Wunderground v.1.13,2016-02-07 09:03:00,
2016-02-07 01:08:00,51.7,33.6,30.15,East,101,0.0,0.0,50,0.00,,,0.00,Wunderground v.1.13,2016-02-07 09:08:00,
2016-02-07 01:14:00,51.5,33.5,30.15,East,101,0.0,0.0,50,0.00,,,0.00,Wunderground v.1.13,2016-02-07 09:14:00,
2016-02-07 01:19:00,51.3,33.8,30.15,East,101,0.0,0.0,51,0.00,,,0.00,Wunderground v.1.13,2016-02-07 09:19:00,
2016-02-07 01:24:00,51.3,33.3,30.15,East,101,0.0,0.0,50,0.00,,,0.00,Wunderground v.1.13,2016-02-07 09:24:00,
2016-02-07 01:29:00,51.5,34.0,30.15,East,101,0.0,0.0,51,0.00,,,0.00,Wunderground v.1.13,2016-02-07 09:29:00,
2016-02-07 01:34:00,51.6,34.0,30.15,East,101,0.0,0.0,51,0.00,,,0.00,Wunderground v.1.13,2016-02-07 09:34:00,
2016-02-07 01:39:00,51.6,33.0,30.15,East,101,0.0,0.0,49,0.00,,,0.00,Wunderground v.1.13,2016-02-07 09:39:00,
2016-02-07 01:44:00,51.7,33.1,30.14,East,101,0.0,0.0,49,0.00,,,0.00,Wunderground v.1.13,2016-02-07 09:44:00,
2016-02-07 01:49:00,51.8,33.2,30.14,East,100,0.0,0.0,49,0.00,,,0.00,Wunderground v.1.13,2016-02-07 09:49:00,
2016-02-07 01:54:00,51.8,33.2,30.14,East,99,0.0,0.0,49,0.00,,,0.00,Wunderground v.1.13,2016-02-07 09:54:00,
2016-02-07 01:59:00,51.9,32.8,30.14,East,99,0.0,0.0,48,0.00,,,0.00,Wunderground v.1.13,2016-02-07 09:59:00,
2016-02-07 02:04:00,51.8,32.2,30.14,East,99,0.0,0.0,47,0.00,,,0.00,Wunderground v.1.13,2016-02-07 10:04:00,
2016-02-07 02:09:00,52.0,32.4,30.14,East,99,0.0,0.0,47,0.00,,,0.00,Wunderground v.1.13,2016-02-07 10:09:00,
2016-02-07 02:14:00,52.3,32.1,30.14,East,98,0.0,0.0,46,0.00,,,0.00,Wunderground v.1.13,2016-02-07 10:14:00,
2016-02-07 02:19:00,52.5,32.3,30.14,East,80,0.0,0.0,46,0.00,,,0.00,Wunderground v.1.13,2016-02-07 10:19:00,
2016-02-07 02:29:00,52.8,32.0,30.14,ENE,63,0.0,0.0,45,0.00,,,0.00,Wunderground v.1.13,2016-02-07 10:29:00,
2016-02-07 02:34:00,52.8,32.0,30.14,ENE,63,0.0,0.0,45,0.00,,,0.00,Wunderground v.1.13,2016-02-07 10:34:00,
2016-02-07 02:39:00,52.9,32.1,30.14,ENE,57,0.0,0.0,45,0.00,,,0.00,Wunderground v.1.13,2016-02-07 10:39:00,
2016-02-07 02:44:00,52.9,32.1,30.14,ENE,57,0.0,0.0,45,0.00,,,0.00,Wunderground v.1.13,2016-02-07 10:44:00,
2016-02-07 02:49:00,52.8,32.0,30.14,ENE,57,0.0,0.0,45,0.00,,,0.00,Wunderground v.1.13,2016-02-07 10:49:00,
2016-02-07 02:54:00,52.7,32.5,30.14,ENE,57,0.0,0.0,46,0.00,,,0.00,Wunderground v.1.13,2016-02-07 10:54:00,
2016-02-07 02:59:00,52.6,32.9,30.13,ENE,57,0.0,0.0,47,0.00,,,0.00,Wunderground v.1.13,2016-02-07 10:59:00,
2016-02-07 03:04:00,52.3,32.6,30.13,ENE,57,0.0,0.0,47,0.00,,,0.00,Wunderground v.1.13,2016-02-07 11:04:00,
2016-02-07 03:09:00,52.1,31.9,30.13,ENE,57,0.0,0.0,46,0.00,,,0.00,Wunderground v.1.13,2016-02-07 11:09:00,
2016-02-07 03:14:00,52.0,31.8,30.13,NE,55,0.0,0.0,46,0.00,,,0.00,Wunderground v.1.13,2016-02-07 11:14:00,
2016-02-07 03:19:00,52.0,31.8,30.13,NE,53,0.0,1.0,46,0.00,,,0.00,Wunderground v.1.13,2016-02-07 11:19:00,
2016-02-07 03:24:00,52.1,31.4,30.13,NE,42,0.0,0.0,45,0.00,,,0.00,Wunderground v.1.13,2016-02-07 11:24:00,
2016-02-07 03:29:00,52.3,31.0,30.13,NE,39,0.0,0.0,44,0.00,,,0.00,Wunderground v.1.13,2016-02-07 11:29:00,
2016-02-07 03:34:00,52.3,31.0,30.13,NE,39,0.0,0.0,44,0.00,,,0.00,Wunderground v.1.13,2016-02-07 11:34:00,
2016-02-07 03:39:00,52.2,31.5,30.13,NE,39,0.0,0.0,45,0.00,,,0.00,Wunderground v.1.13,2016-02-07 11:39:00,
2016-02-07 03:44:00,51.9,31.2,30.12,NE,39,0.0,0.0,45,0.00,,,0.00,Wunderground v.1.13,2016-02-07 11:44:00,
2016-02-07 03:49:00,51.5,31.4,30.12,NE,39,0.0,0.0,46,0.00,,,0.00,Wunderground v.1.13,2016-02-07 11:49:00,
2016-02-07 03:55:00,51.2,31.1,30.12,NE,39,0.0,0.0,46,0.00,,,0.00,Wunderground v.1.13,2016-02-07 11:55:00,
2016-02-07 04:00:00,51.1,31.0,30.12,NE,39,0.0,0.0,46,0.00,,,0.00,Wunderground v.1.13,2016-02-07 12:00:00,
2016-02-07 04:05:00,50.9,30.8,30.12,NE,39,0.0,0.0,46,0.00,,,0.00,Wunderground v.1.13,2016-02-07 12:05:00,
2016-02-07 04:10:00,50.8,31.3,30.12,NE,39,0.0,0.0,47,0.00,,,0.00,Wunderground v.1.13,2016-02-07 12:10:00,
2016-02-07 04:15:00,50.6,30.6,30.12,NE,39,0.0,0.0,46,0.00,,,0.00,Wunderground v.1.13,2016-02-07 12:15:00,
2016-02-07 04:20:00,50.8,30.7,30.12,NNE,31,0.0,0.0,46,0.00,,,0.00,Wunderground v.1.13,2016-02-07 12:20:00,
2016-02-07 04:25:00,50.9,30.8,30.12,NNE,31,0.0,0.0,46,0.00,,,0.00,Wunderground v.1.13,2016-02-07 12:25:00,
2016-02-07 04:30:00,50.8,30.7,30.12,NNE,31,0.0,0.0,46,0.00,,,0.00,Wunderground v.1.13,2016-02-07 12:30:00,
2016-02-07 04:35:00,50.9,29.7,30.11,NNE,31,0.0,0.0,44,0.00,,,0.00,Wunderground v.1.13,2016-02-07 12:35:00,
2016-02-07 04:40:00,51.0,29.8,30.11,NNE,31,0.0,0.0,44,0.00,,,0.00,Wunderground v.1.13,2016-02-07 12:40:00,
2016-02-07 04:45:00,51.1,29.9,30.12,NNE,31,0.0,0.0,44,0.00,,,0.00,Wunderground v.1.13,2016-02-07 12:45:00,
2016-02-07 04:50:00,50.9,30.3,30.12,NNE,31,0.0,0.0,45,0.00,,,0.00,Wunderground v.1.13,2016-02-07 12:50:00,
2016-02-07 04:55:00,50.7,30.1,30.12,NNE,31,0.0,0.0,45,0.00,,,0.00,Wunderground v.1.13,2016-02-07 12:55:00,
2016-02-07 05:00:00,50.5,31.0,30.12,NNE,31,0.0,0.0,47,0.00,,,0.00,Wunderground v.1.13,2016-02-07 13:00:00,
2016-02-07 05:05:00,50.2,30.7,30.12,NNE,31,0.0,0.0,47,0.00,,,0.00,Wunderground v.1.13,2016-02-07 13:05:00,
2016-02-07 05:10:00,49.9,30.5,30.11,NNE,31,0.0,0.0,47,0.00,,,0.00,Wunderground v.1.13,2016-02-07 13:10:00,
2016-02-07 05:15:00,49.9,29.9,30.12,NNE,31,0.0,0.0,46,0.00,,,0.00,Wunderground v.1.13,2016-02-07 13:15:00,
2016-02-07 05:20:00,49.8,29.8,30.11,NNE,31,0.0,0.0,46,0.00,,,0.00,Wunderground v.1.13,2016-02-07 13:20:00,
2016-02-07 05:25:00,49.7,29.7,30.11,NNE,31,0.0,0.0,46,0.00,,,0.00,Wunderground v.1.13,2016-02-07 13:25:00,
2016-02-07 05:30:00,49.9,29.4,30.11,NNE,31,0.0,0.0,45,0.00,,,0.00,Wunderground v.1.13,2016-02-07 13:30:00,
2016-02-07 05:35:00,50.0,29.5,30.11,NNE,31,0.0,0.0,45,0.00,,,0.00,Wunderground v.1.13,2016-02-07 13:35:00,
2016-02-07 05:40:00,50.0,29.5,30.11,NNE,31,0.0,0.0,45,0.00,,,0.00,Wunderground v.1.13,2016-02-07 13:40:00,
2016-02-07 05:45:00,50.0,29.5,30.11,NNE,31,0.0,0.0,45,0.00,,,0.00,Wunderground v.1.13,2016-02-07 13:45:00,
2016-02-07 05:50:00,50.1,30.1,30.11,NNE,31,0.0,0.0,46,0.00,,,0.00,Wunderground v.1.13,2016-02-07 13:50:00,
2016-02-07 05:55:00,50.2,30.2,30.11,NNE,30,0.0,0.0,46,0.00,,,0.00,Wunderground v.1.13,2016-02-07 13:55:00,
2016-02-07 06:00:00,50.3,29.2,30.11,NNE,24,0.0,0.0,44,0.00,,,0.00,Wunderground v.1.13,2016-02-07 14:00:00,
2016-02-07 06:05:00,50.6,28.9,30.12,NNE,21,0.0,0.0,43,0.00,,,0.00,Wunderground v.1.13,2016-02-07 14:05:00,
2016-02-07 06:10:00,50.9,29.2,30.12,North,355,0.0,2.0,43,0.00,,,0.00,Wunderground v.1.13,2016-02-07 14:10:00,
2016-02-07 06:15:00,51.1,29.4,30.12,North,355,0.0,0.0,43,0.00,,,0.00,Wunderground v.1.13,2016-02-07 14:15:00,
2016-02-07 06:20:00,51.1,29.4,30.12,NNW,343,0.0,2.0,43,0.00,,,0.00,Wunderground v.1.13,2016-02-07 14:20:00,
2016-02-07 06:25:00,51.1,28.8,30.12,NNW,336,0.0,0.0,42,0.00,,,0.00,Wunderground v.1.13,2016-02-07 14:25:00,
2016-02-07 06:30:00,51.0,29.3,30.12,NNW,336,0.0,0.0,43,0.00,,,0.00,Wunderground v.1.13,2016-02-07 14:30:00,
2016-02-07 06:40:00,50.5,29.9,30.13,NNW,336,0.0,0.0,45,0.00,,,0.00,Wunderground v.1.13,2016-02-07 14:40:00,
2016-02-07 06:45:00,50.2,29.7,30.13,NNW,336,0.0,0.0,45,0.00,,,0.00,Wunderground v.1.13,2016-02-07 14:45:00,
2016-02-07 06:50:00,49.9,29.4,30.13,NNW,334,0.0,0.0,45,0.00,,,0.00,Wunderground v.1.13,2016-02-07 14:50:00,
2016-02-07 06:55:00,50.1,29.6,30.13,NNW,334,0.0,0.0,45,0.00,,,0.00,Wunderground v.1.13,2016-02-07 14:55:00,
2016-02-07 07:00:00,50.1,29.6,30.13,NNW,334,0.0,0.0,45,0.00,,,0.00,Wunderground v.1.13,2016-02-07 15:00:00,
2016-02-07 07:05:00,50.3,29.7,30.13,NNW,331,0.0,0.0,45,0.00,,,0.00,Wunderground v.1.13,2016-02-07 15:05:00,
2016-02-07 07:10:00,50.6,28.9,30.13,NNW,329,0.0,0.0,43,0.00,,,0.00,Wunderground v.1.13,2016-02-07 15:10:00,
2016-02-07 07:15:00,51.3,29.0,30.12,NNW,327,0.0,3.0,42,0.00,,,0.00,Wunderground v.1.13,2016-02-07 15:15:00,
2016-02-07 07:20:00,51.9,28.9,30.13,NNW,331,0.0,0.0,41,0.00,,,0.00,Wunderground v.1.13,2016-02-07 15:20:00,
2016-02-07 07:30:00,52.4,29.4,30.13,NNW,332,0.0,0.0,41,0.00,,,0.00,Wunderground v.1.13,2016-02-07 15:30:00,
2016-02-07 07:35:00,52.6,29.5,30.13,NNW,333,0.0,0.0,41,0.00,,,0.00,Wunderground v.1.13,2016-02-07 15:35:00,
2016-02-07 07:40:00,52.9,30.4,30.13,NW,321,0.0,0.0,42,0.00,,,0.00,Wunderground v.1.13,2016-02-07 15:40:00,
2016-02-07 07:50:00,54.1,29.7,30.13,NW,322,0.0,3.0,39,0.00,,,0.00,Wunderground v.1.13,2016-02-07 15:50:00,
2016-02-07 07:55:00,54.9,29.7,30.13,NNW,337,1.0,4.0,38,0.00,,,0.00,Wunderground v.1.13,2016-02-07 15:55:00,
2016-02-07 08:00:00,55.7,29.8,30.13,NNW,332,0.0,7.0,37,0.00,,,0.00,Wunderground v.1.13,2016-02-07 16:00:00,
2016-02-07 08:05:00,56.4,29.7,30.14,NNW,331,0.0,4.0,36,0.00,,,0.00,Wunderground v.1.13,2016-02-07 16:05:00,
2016-02-07 08:10:00,57.0,29.6,30.14,NNW,347,0.0,3.0,35,0.00,,,0.00,Wunderground v.1.13,2016-02-07 16:10:00,
2016-02-07 08:20:00,58.2,29.9,30.14,North,350,2.0,5.0,34,0.00,,,0.00,Wunderground v.1.13,2016-02-07 16:20:00,
2016-02-07 08:25:00,58.8,30.5,30.14,North,350,0.0,2.0,34,0.00,,,0.00,Wunderground v.1.13,2016-02-07 16:25:00,
2016-02-07 08:30:00,59.5,31.1,30.14,NNW,348,0.0,4.0,34,0.00,,,0.00,Wunderground v.1.13,2016-02-07 16:30:00,
2016-02-07 08:35:00,60.0,30.0,30.14,NNW,346,1.0,4.0,32,0.00,,,0.00,Wunderground v.1.13,2016-02-07 16:35:00,
2016-02-07 08:40:00,60.6,30.6,30.14,NNW,332,0.0,4.0,32,0.00,,,0.00,Wunderground v.1.13,2016-02-07 16:40:00,
2016-02-07 08:46:00,61.3,30.4,30.15,NNW,340,0.0,4.0,31,0.00,,,0.00,Wunderground v.1.13,2016-02-07 16:46:00,
2016-02-07 08:51:00,62.0,31.0,30.14,NNW,336,4.0,4.0,31,0.00,,,0.00,Wunderground v.1.13,2016-02-07 16:51:00,
2016-02-07 08:56:00,62.6,30.7,30.15,North,355,3.0,4.0,30,0.00,,,0.00,Wunderground v.1.13,2016-02-07 16:56:00,
2016-02-07 09:01:00,63.3,30.5,30.15,North,355,0.0,2.0,29,0.00,,,0.00,Wunderground v.1.13,2016-02-07 17:01:00,
2016-02-07 09:06:00,64.1,31.2,30.15,NNW,344,4.0,4.0,29,0.00,,,0.00,Wunderground v.1.13,2016-02-07 17:06:00,
2016-02-07 09:11:00,64.8,30.0,30.15,NNW,346,4.0,5.0,27,0.00,,,0.00,Wunderground v.1.13,2016-02-07 17:11:00,
2016-02-07 09:15:00,65.5,31.5,30.15,NNW,346,0.0,2.0,28,0.00,,,0.00,Wunderground v.1.13,2016-02-07 17:15:00,
2016-02-07 09:20:00,66.3,32.2,30.15,NNW,346,0.0,1.0,28,0.00,,,0.00,Wunderground v.1.13,2016-02-07 17:20:00,
2016-02-07 09:25:00,67.1,31.0,30.15,NNW,346,0.0,0.0,26,0.00,,,0.00,Wunderground v.1.13,2016-02-07 17:25:00,
2016-02-07 09:30:00,68.0,32.7,30.14,NNW,346,0.0,0.0,27,0.00,,,0.00,Wunderground v.1.13,2016-02-07 17:30:00,
2016-02-07 09:41:00,69.7,31.3,30.14,NNW,346,0.0,0.0,24,0.00,,,0.00,Wunderground v.1.13,2016-02-07 17:41:00,
2016-02-07 09:46:00,71.0,30.2,30.15,NNW,346,0.0,0.0,22,0.00,,,0.00,Wunderground v.1.13,2016-02-07 17:46:00,
2016-02-07 09:51:00,71.8,28.5,30.15,NNW,346,0.0,0.0,20,0.00,,,0.00,Wunderground v.1.13,2016-02-07 17:51:00,
2016-02-07 09:56:00,72.2,30.1,30.15,NNW,346,0.0,0.0,21,0.00,,,0.00,Wunderground v.1.13,2016-02-07 17:56:00,
2016-02-07 10:01:00,72.8,31.7,30.15,NNW,346,0.0,0.0,22,0.00,,,0.00,Wunderground v.1.13,2016-02-07 18:01:00,
2016-02-07 10:06:00,73.7,30.1,30.15,NNW,346,0.0,0.0,20,0.00,,,0.00,Wunderground v.1.13,2016-02-07 18:06:00,
2016-02-07 10:11:00,74.4,31.9,30.15,NNW,346,0.0,0.0,21,0.00,,,0.00,Wunderground v.1.13,2016-02-07 18:11:00,
2016-02-07 10:16:00,74.9,29.8,30.14,NNW,346,0.0,0.0,19,0.00,,,0.00,Wunderground v.1.13,2016-02-07 18:16:00,
2016-02-07 10:21:00,75.5,31.6,30.14,NNW,337,0.0,2.0,20,0.00,,,0.00,Wunderground v.1.13,2016-02-07 18:21:00,
2016-02-07 10:26:00,76.2,32.2,30.14,NNW,337,1.0,2.0,20,0.00,,,0.00,Wunderground v.1.13,2016-02-07 18:26:00,
2016-02-07 10:31:00,76.7,32.6,30.14,NNW,337,2.0,3.0,20,0.00,,,0.00,Wunderground v.1.13,2016-02-07 18:31:00,
2016-02-07 10:36:00,77.3,30.5,30.14,NNW,337,0.0,1.0,18,0.00,,,0.00,Wunderground v.1.13,2016-02-07 18:36:00,
2016-02-07 10:46:00,78.5,34.1,30.14,NNW,337,0.0,2.0,20,0.00,,,0.00,Wunderground v.1.13,2016-02-07 18:46:00,
2016-02-07 10:51:00,79.0,30.4,30.13,NNW,337,0.0,0.0,17,0.00,,,0.00,Wunderground v.1.13,2016-02-07 18:51:00,
2016-02-07 10:56:00,79.4,29.3,30.13,NNW,337,0.0,0.0,16,0.00,,,0.00,Wunderground v.1.13,2016-02-07 18:56:00,
2016-02-07 11:01:00,79.8,29.6,30.13,NNW,337,0.0,0.0,16,0.00,,,0.00,Wunderground v.1.13,2016-02-07 19:01:00,
2016-02-07 11:06:00,80.6,30.2,30.13,NNW,337,0.0,0.0,16,0.00,,,0.00,Wunderground v.1.13,2016-02-07 19:06:00,
2016-02-07 11:11:00,81.3,27.5,30.13,NNW,337,0.0,0.0,14,0.00,,,0.00,Wunderground v.1.13,2016-02-07 19:11:00,
2016-02-07 11:16:00,81.6,29.4,30.12,NNW,338,0.0,0.0,15,0.00,,,0.00,Wunderground v.1.13,2016-02-07 19:16:00,
2016-02-07 11:21:00,82.0,26.3,30.12,NNW,348,0.0,0.0,13,0.00,,,0.00,Wunderground v.1.13,2016-02-07 19:21:00,
2016-02-07 11:26:00,82.5,26.7,30.12,NNW,348,1.0,1.0,13,0.00,,,0.00,Wunderground v.1.13,2016-02-07 19:26:00,
2016-02-07 11:31:00,83.0,27.1,30.12,North,350,2.0,4.0,13,0.00,,,0.00,Wunderground v.1.13,2016-02-07 19:31:00,
2016-02-07 11:36:00,83.4,29.2,30.12,NNW,348,1.0,4.0,14,0.00,,,0.00,Wunderground v.1.13,2016-02-07 19:36:00,
2016-02-07 11:41:00,83.5,27.5,30.11,NNE,24,4.0,4.0,13,0.00,,,0.00,Wunderground v.1.13,2016-02-07 19:41:00,
2016-02-07 11:46:00,83.8,25.7,30.11,SE,142,0.0,1.0,12,0.00,,,0.00,Wunderground v.1.13,2016-02-07 19:46:00,
2016-02-07 11:51:00,83.4,27.4,30.11,SSE,148,1.0,5.0,13,0.00,,,0.00,Wunderground v.1.13,2016-02-07 19:51:00,
2016-02-07 11:56:00,83.1,25.2,30.10,SSE,157,0.0,1.0,12,0.00,,,0.00,Wunderground v.1.13,2016-02-07 19:56:00,
2016-02-07 12:01:00,83.3,27.3,30.10,South,188,0.0,1.0,13,0.00,,,0.00,Wunderground v.1.13,2016-02-07 20:01:00,
2016-02-07 12:06:00,83.5,27.5,30.10,South,188,0.0,0.0,13,0.00,,,0.00,Wunderground v.1.13,2016-02-07 20:06:00,
2016-02-07 12:11:00,84.0,29.7,30.10,South,187,0.0,0.0,14,0.00,,,0.00,Wunderground v.1.13,2016-02-07 20:11:00,
2016-02-07 12:16:00,84.8,28.5,30.09,SSE,168,0.0,0.0,13,0.00,,,0.00,Wunderground v.1.13,2016-02-07 20:16:00,
2016-02-07 12:21:00,85.2,28.8,30.09,South,169,2.0,3.0,13,0.00,,,0.00,Wunderground v.1.13,2016-02-07 20:21:00,
2016-02-07 12:26:00,85.2,28.8,30.09,South,169,1.0,1.0,13,0.00,,,0.00,Wunderground v.1.13,2016-02-07 20:26:00,
2016-02-07 12:31:00,85.3,28.9,30.09,South,169,0.0,0.0,13,0.00,,,0.00,Wunderground v.1.13,2016-02-07 20:31:00,
2016-02-07 12:37:00,85.4,27.0,30.09,South,172,2.0,2.0,12,0.00,,,0.00,Wunderground v.1.13,2016-02-07 20:37:00,
2016-02-07 12:42:00,85.5,29.0,30.09,SSE,161,0.0,0.0,13,0.00,,,0.00,Wunderground v.1.13,2016-02-07 20:42:00,
2016-02-07 12:47:00,85.6,27.1,30.08,SSE,161,0.0,0.0,12,0.00,,,0.00,Wunderground v.1.13,2016-02-07 20:47:00,
2016-02-07 12:52:00,85.6,27.1,30.08,SSE,161,0.0,0.0,12,0.00,,,0.00,Wunderground v.1.13,2016-02-07 20:52:00,
2016-02-07 12:57:00,85.9,29.3,30.07,SSE,161,0.0,0.0,13,0.00,,,0.00,Wunderground v.1.13,2016-02-07 20:57:00,
2016-02-07 13:02:00,86.6,31.7,30.07,ESE,123,3.0,3.0,14,0.00,,,0.00,Wunderground v.1.13,2016-02-07 21:02:00,
2016-02-07 13:07:00,87.2,28.4,30.07,East,101,0.0,2.0,12,0.00,,,0.00,Wunderground v.1.13,2016-02-07 21:07:00,
2016-02-07 13:12:00,87.5,26.5,30.07,East,101,0.0,1.0,11,0.00,,,0.00,Wunderground v.1.13,2016-02-07 21:12:00,
2016-02-07 13:17:00,87.2,24.0,30.06,East,101,0.0,0.0,10,0.00,,,0.00,Wunderground v.1.13,2016-02-07 21:17:00,
2016-02-07 13:22:00,87.4,26.4,30.06,North,10,3.0,4.0,11,0.00,,,0.00,Wunderground v.1.13,2016-02-07 21:22:00,
2016-02-07 13:27:00,88.0,26.9,30.07,NNW,329,0.0,2.0,11,0.00,,,0.00,Wunderground v.1.13,2016-02-07 21:27:00,
2016-02-07 13:32:00,88.3,31.2,30.07,ENE,57,0.0,3.0,13,0.00,,,0.00,Wunderground v.1.13,2016-02-07 21:32:00,
2016-02-07 13:37:00,88.4,27.2,30.06,SW,220,0.0,2.0,11,0.00,,,0.00,Wunderground v.1.13,2016-02-07 21:37:00,
2016-02-07 13:42:00,88.0,26.9,30.07,South,181,3.0,5.0,11,0.00,,,0.00,Wunderground v.1.13,2016-02-07 21:42:00,
2016-02-07 13:47:00,87.7,26.7,30.06,South,182,4.0,6.0,11,0.00,,,0.00,Wunderground v.1.13,2016-02-07 21:47:00,
2016-02-07 13:52:00,87.4,28.5,30.06,SSW,193,3.0,4.0,12,0.00,,,0.00,Wunderground v.1.13,2016-02-07 21:52:00,
2016-02-07 13:57:00,87.7,30.7,30.06,SSW,196,2.0,2.0,13,0.00,,,0.00,Wunderground v.1.13,2016-02-07 21:57:00,
2016-02-07 14:02:00,88.1,27.0,30.06,SW,214,3.0,5.0,11,0.00,,,0.00,Wunderground v.1.13,2016-02-07 22:02:00,
2016-02-07 14:07:00,87.5,26.5,30.06,SW,219,5.0,5.0,11,0.00,,,0.00,Wunderground v.1.13,2016-02-07 22:07:00,
2016-02-07 14:12:00,87.0,26.1,30.06,SSW,196,2.0,5.0,11,0.00,,,0.00,Wunderground v.1.13,2016-02-07 22:12:00,
2016-02-07 14:17:00,86.6,27.9,30.06,SSE,163,3.0,6.0,12,0.00,,,0.00,Wunderground v.1.13,2016-02-07 22:17:00,
2016-02-07 14:22:00,86.4,25.7,30.06,South,184,2.0,3.0,11,0.00,,,0.00,Wunderground v.1.13,2016-02-07 22:22:00,
2016-02-07 14:27:00,86.5,25.7,30.06,South,188,2.0,4.0,11,0.00,,,0.00,Wunderground v.1.13,2016-02-07 22:27:00,
2016-02-07 14:32:00,86.6,27.9,30.05,SW,217,1.0,3.0,12,0.00,,,0.00,Wunderground v.1.13,2016-02-07 22:32:00,
2016-02-07 14:37:00,87.1,26.2,30.05,SW,217,2.0,2.0,11,0.00,,,0.00,Wunderground v.1.13,2016-02-07 22:37:00,
2016-02-07 14:42:00,87.5,26.5,30.05,WSW,238,0.0,3.0,11,0.00,,,0.00,Wunderground v.1.13,2016-02-07 22:42:00,
2016-02-07 14:47:00,88.0,31.0,30.05,WNW,302,1.0,3.0,13,0.00,,,0.00,Wunderground v.1.13,2016-02-07 22:47:00,
2016-02-07 14:52:00,88.3,29.2,30.06,WSW,258,0.0,4.0,12,0.00,,,0.00,Wunderground v.1.13,2016-02-07 22:52:00,
2016-02-07 14:57:00,88.5,29.4,30.06,WNW,289,1.0,3.0,12,0.00,,,0.00,Wunderground v.1.13,2016-02-07 22:57:00,
2016-02-07 15:02:00,88.4,29.3,30.06,WSW,240,3.0,3.0,12,0.00,,,0.00,Wunderground v.1.13,2016-02-07 23:02:00,
2016-02-07 15:07:00,88.3,27.1,30.06,NW,306,0.0,4.0,11,0.00,,,0.00,Wunderground v.1.13,2016-02-07 23:07:00,
2016-02-07 15:12:00,88.3,27.1,30.06,WNW,300,0.0,3.0,11,0.00,,,0.00,Wunderground v.1.13,2016-02-07 23:12:00,
2016-02-07 15:17:00,88.3,27.1,30.06,WNW,288,0.0,4.0,11,0.00,,,0.00,Wunderground v.1.13,2016-02-07 23:17:00,
2016-02-07 15:22:00,88.2,29.2,30.06,WSW,251,1.0,4.0,12,0.00,,,0.00,Wunderground v.1.13,2016-02-07 23:22:00,
2016-02-07 15:27:00,88.1,29.1,30.06,WNW,290,0.0,3.0,12,0.00,,,0.00,Wunderground v.1.13,2016-02-07 23:27:00,
2016-02-07 15:32:00,87.9,28.9,30.06,WNW,282,3.0,5.0,12,0.00,,,0.00,Wunderground v.1.13,2016-02-07 23:32:00,
2016-02-07 15:37:00,87.6,28.7,30.06,NW,311,3.0,3.0,12,0.00,,,0.00,Wunderground v.1.13,2016-02-07 23:37:00,
2016-02-07 15:42:00,87.4,28.5,30.06,West,268,0.0,4.0,12,0.00,,,0.00,Wunderground v.1.13,2016-02-07 23:42:00,
2016-02-07 15:47:00,87.2,32.2,30.06,NW,308,0.0,6.0,14,0.00,,,0.00,Wunderground v.1.13,2016-02-07 23:47:00,
2016-02-07 15:57:00,85.9,31.2,30.06,West,277,0.0,4.0,14,0.00,,,0.00,Wunderground v.1.13,2016-02-07 23:57:00,
2016-02-07 16:02:00,85.4,32.5,30.06,WNW,286,0.0,2.0,15,0.00,,,0.00,Wunderground v.1.13,2016-02-08 00:02:00,
2016-02-07 16:07:00,84.8,32.0,30.06,West,269,1.0,3.0,15,0.00,,,0.00,Wunderground v.1.13,2016-02-08 00:07:00,
2016-02-07 16:12:00,84.3,31.6,30.06,West,279,0.0,1.0,15,0.00,,,0.00,Wunderground v.1.13,2016-02-08 00:12:00,
2016-02-07 16:17:00,84.0,31.4,30.06,WNW,287,1.0,3.0,15,0.00,,,0.00,Wunderground v.1.13,2016-02-08 00:17:00,
2016-02-07 16:22:00,83.4,30.9,30.06,West,269,2.0,3.0,15,0.00,,,0.00,Wunderground v.1.13,2016-02-08 00:22:00,
2016-02-07 16:27:00,82.5,33.3,30.05,NW,326,0.0,2.0,17,0.00,,,0.00,Wunderground v.1.13,2016-02-08 00:27:00,
2016-02-07 16:32:00,81.4,32.4,30.05,WNW,294,2.0,5.0,17,0.00,,,0.00,Wunderground v.1.13,2016-02-08 00:32:00,
2016-02-07 16:37:00,80.5,34.4,30.05,WNW,297,0.0,4.0,19,0.00,,,0.00,Wunderground v.1.13,2016-02-08 00:37:00,
2016-02-07 16:42:00,79.7,33.8,30.06,NW,306,0.0,1.0,19,0.00,,,0.00,Wunderground v.1.13,2016-02-08 00:42:00,
2016-02-07 16:47:00,79.0,34.5,30.06,WNW,296,0.0,2.0,20,0.00,,,0.00,Wunderground v.1.13,2016-02-08 00:47:00,
2016-02-07 16:52:00,78.2,33.8,30.06,WNW,296,0.0,3.0,20,0.00,,,0.00,Wunderground v.1.13,2016-02-08 00:52:00,
2016-02-07 16:57:00,77.5,33.2,30.06,WNW,296,1.0,2.0,20,0.00,,,0.00,Wunderground v.1.13,2016-02-08 00:57:00,
2016-02-07 17:02:00,76.9,34.0,30.06,WNW,300,0.0,0.0,21,0.00,,,0.00,Wunderground v.1.13,2016-02-08 01:02:00,
2016-02-07 17:07:00,76.4,33.6,30.06,WNW,300,0.0,0.0,21,0.00,,,0.00,Wunderground v.1.13,2016-02-08 01:07:00,
2016-02-07 17:12:00,75.8,34.2,30.06,WNW,300,0.0,0.0,22,0.00,,,0.00,Wunderground v.1.13,2016-02-08 01:12:00,
2016-02-07 17:17:00,75.3,32.6,30.06,WNW,285,0.0,0.0,21,0.00,,,0.00,Wunderground v.1.13,2016-02-08 01:17:00,
2016-02-07 17:22:00,74.8,32.2,30.06,WNW,288,0.0,0.0,21,0.00,,,0.00,Wunderground v.1.13,2016-02-08 01:22:00,
2016-02-07 17:27:00,74.2,32.9,30.06,WNW,294,0.0,0.0,22,0.00,,,0.00,Wunderground v.1.13,2016-02-08 01:27:00,
2016-02-07 17:32:00,73.8,32.6,30.06,WNW,295,0.0,0.0,22,0.00,,,0.00,Wunderground v.1.13,2016-02-08 01:32:00,
2016-02-07 17:37:00,73.2,30.9,30.06,NW,308,0.0,0.0,21,0.00,,,0.00,Wunderground v.1.13,2016-02-08 01:37:00,
2016-02-07 17:42:00,72.7,29.3,30.06,WNW,302,0.0,0.0,20,0.00,,,0.00,Wunderground v.1.13,2016-02-08 01:42:00,
2016-02-07 17:47:00,72.2,30.1,30.06,WNW,302,0.0,0.0,21,0.00,,,0.00,Wunderground v.1.13,2016-02-08 01:47:00,
2016-02-07 17:52:00,71.8,29.7,30.07,WNW,302,0.0,0.0,21,0.00,,,0.00,Wunderground v.1.13,2016-02-08 01:52:00,
2016-02-07 17:57:00,71.3,30.5,30.07,WNW,302,0.0,0.0,22,0.00,,,0.00,Wunderground v.1.13,2016-02-08 01:57:00,
2016-02-07 18:02:00,70.7,31.1,30.07,WNW,302,0.0,0.0,23,0.00,,,0.00,Wunderground v.1.13,2016-02-08 02:02:00,
2016-02-07 18:07:00,70.1,31.6,30.07,WNW,302,0.0,0.0,24,0.00,,,0.00,Wunderground v.1.13,2016-02-08 02:07:00,
2016-02-07 18:12:00,69.5,32.1,30.07,WNW,302,0.0,0.0,25,0.00,,,0.00,Wunderground v.1.13,2016-02-08 02:12:00,
2016-02-07 18:17:00,69.0,32.7,30.07,WNW,302,0.0,0.0,26,0.00,,,0.00,Wunderground v.1.13,2016-02-08 02:17:00,
2016-02-07 18:22:00,68.4,33.1,30.07,WNW,302,0.0,0.0,27,0.00,,,0.00,Wunderground v.1.13,2016-02-08 02:22:00,
2016-02-07 18:27:00,67.9,32.7,30.07,WNW,302,0.0,0.0,27,0.00,,,0.00,Wunderground v.1.13,2016-02-08 02:27:00,
2016-02-07 18:32:00,67.4,34.0,30.08,WNW,302,0.0,0.0,29,0.00,,,0.00,Wunderground v.1.13,2016-02-08 02:32:00,
2016-02-07 18:37:00,66.9,33.6,30.08,WNW,302,0.0,0.0,29,0.00,,,0.00,Wunderground v.1.13,2016-02-08 02:37:00,
2016-02-07 18:42:00,66.6,34.2,30.08,WNW,302,0.0,0.0,30,0.00,,,0.00,Wunderground v.1.13,2016-02-08 02:42:00,
2016-02-07 18:47:00,66.2,34.7,30.08,WNW,302,0.0,0.0,31,0.00,,,0.00,Wunderground v.1.13,2016-02-08 02:47:00,
2016-02-07 18:52:00,65.8,34.3,30.08,WNW,302,0.0,0.0,31,0.00,,,0.00,Wunderground v.1.13,2016-02-08 02:52:00,
2016-02-07 18:57:00,65.4,34.0,30.08,WNW,302,0.0,0.0,31,0.00,,,0.00,Wunderground v.1.13,2016-02-08 02:57:00,
2016-02-07 19:02:00,65.1,34.5,30.08,WNW,302,0.0,0.0,32,0.00,,,0.00,Wunderground v.1.13,2016-02-08 03:02:00,
2016-02-07 19:12:00,64.4,34.6,30.08,WNW,302,0.0,0.0,33,0.00,,,0.00,Wunderground v.1.13,2016-02-08 03:12:00,
2016-02-07 19:22:00,63.9,35.7,30.08,WNW,302,0.0,0.0,35,0.00,,,0.00,Wunderground v.1.13,2016-02-08 03:22:00,
2016-02-07 19:27:00,63.7,35.5,30.08,WNW,302,0.0,0.0,35,0.00,,,0.00,Wunderground v.1.13,2016-02-08 03:27:00,
2016-02-07 19:37:00,63.1,35.0,30.08,NNW,331,0.0,0.0,35,0.00,,,0.00,Wunderground v.1.13,2016-02-08 03:37:00,
2016-02-07 19:42:00,62.9,34.8,30.09,NNE,30,0.0,0.0,35,0.00,,,0.00,Wunderground v.1.13,2016-02-08 03:42:00,
2016-02-07 19:47:00,62.8,34.7,30.09,NNE,30,0.0,0.0,35,0.00,,,0.00,Wunderground v.1.13,2016-02-08 03:47:00,
2016-02-07 19:52:00,62.7,35.3,30.09,NNE,30,0.0,0.0,36,0.00,,,0.00,Wunderground v.1.13,2016-02-08 03:52:00,
2016-02-07 19:57:00,62.5,35.9,30.09,NNE,30,0.0,0.0,37,0.00,,,0.00,Wunderground v.1.13,2016-02-08 03:57:00,
2016-02-07 20:02:00,62.3,35.7,30.09,NNE,30,0.0,0.0,37,0.00,,,0.00,Wunderground v.1.13,2016-02-08 04:02:00,
2016-02-07 20:07:00,62.0,35.4,30.09,NNE,30,0.0,0.0,37,0.00,,,0.00,Wunderground v.1.13,2016-02-08 04:07:00,
2016-02-07 20:12:00,61.8,35.2,30.09,NNE,30,0.0,0.0,37,0.00,,,0.00,Wunderground v.1.13,2016-02-08 04:12:00,
2016-02-07 20:22:00,61.4,35.5,30.09,NNE,33,0.0,0.0,38,0.00,,,0.00,Wunderground v.1.13,2016-02-08 04:22:00,
2016-02-07 20:32:00,61.0,35.2,30.09,NNE,33,0.0,0.0,38,0.00,,,0.00,Wunderground v.1.13,2016-02-08 04:32:00,
2016-02-07 20:37:00,60.8,35.0,30.09,NNE,33,0.0,0.0,38,0.00,,,0.00,Wunderground v.1.13,2016-02-08 04:37:00,
2016-02-07 20:42:00,60.7,34.9,30.10,NNE,33,0.0,0.0,38,0.00,,,0.00,Wunderground v.1.13,2016-02-08 04:42:00,
2016-02-07 20:48:00,60.6,34.8,30.10,NE,34,0.0,0.0,38,0.00,,,0.00,Wunderground v.1.13,2016-02-08 04:48:00,
2016-02-07 20:53:00,60.5,34.7,30.10,NE,34,0.0,0.0,38,0.00,,,0.00,Wunderground v.1.13,2016-02-08 04:53:00,
2016-02-07 20:58:00,60.4,35.3,30.10,NE,34,0.0,0.0,39,0.00,,,0.00,Wunderground v.1.13,2016-02-08 04:58:00,
2016-02-07 21:03:00,60.2,34.5,30.10,NE,34,0.0,0.0,38,0.00,,,0.00,Wunderground v.1.13,2016-02-08 05:03:00,
2016-02-07 21:08:00,60.1,35.0,30.10,NE,39,0.0,0.0,39,0.00,,,0.00,Wunderground v.1.13,2016-02-08 05:08:00,
2016-02-07 21:13:00,60.0,35.0,30.10,NE,39,0.0,0.0,39,0.00,,,0.00,Wunderground v.1.13,2016-02-08 05:13:00,